{"data":{"norad_id":34941,"intl_designator":"2009-027A","name":"SES-7 (PROTOSTAR 2)","alt_names":[],"object_type":"PAYLOAD","status":"ACTIVE","operator":null,"country":"SES","launch_date":"2009-05-16","launch_site_code":"TYMSC","launch_vehicle":null,"mission":null,"orbit_class":"UNKNOWN","rcs_meters":10,"size_class":null,"mass_kg":null,"dimensions":null,"purposes":["comms"],"wikipedia_slug":null,"has_3d_model":false,"image_url":null,"decayed_at":null,"tle_current":{"epoch":"2026-05-25T00:50:06.338112Z","epoch_age_seconds":75256,"freshness":"FRESH","line1":"1 34941U 09027A   26145.03479558 -.00000347  00000+0  00000+0 0  9991","line2":"2 34941   0.0759  82.9158 0000686 310.6492 329.8369  1.00270060 62398","mean_motion":1.0027006,"eccentricity":6.86e-5,"inclination_deg":0.0759,"raan_deg":82.9158,"arg_perigee_deg":310.6492,"mean_anomaly_deg":329.8369,"bstar":0,"rev_number":6239,"period_min":1436.1216099801,"perigee_km":35784.186014456,"apogee_km":35789.971082029,"semimajor_km":42165.215548243,"source":"CELESTRAK","updated_at":"2026-05-25T13:38:14.502710Z"}}}